BRS01 GVAC-SBBR

Flight info

Callsign BRS01
Flight time 5h 43m
Altitude 38000
Route LISOS1A MELUT UW46 KEPAS UN741 ROLID UZ18 VADOP
Aircraft A319/M-SDE2E3FGHIJ1J3J4J5RWYZ/SB1

Departure

Time 2026-04-24 19:30
Airport Amílcar Cabral International Airport (GVAC)

Arrival

Time 2026-04-25 01:13
Airport Presidente Juscelino Kubitschek International Airport (SBBR)
Time Latitude Longitude Altitude Speed Heading
2026-04-24 19:18 16.73235 -22.94496 206 ft 0 kts 90°
2026-04-24 19:23 16.73235 -22.94511 212 ft 4 kts 91°
2026-04-24 19:23 16.73236 -22.94538 207 ft 4 kts 94°
2026-04-24 19:24 16.73239 -22.94567 210 ft 4 kts 103°
2026-04-24 19:24 16.73248 -22.94591 214 ft 4 kts 152°
2026-04-24 19:24 16.73255 -22.94595 212 ft 0 kts 179°
2026-04-24 19:26 16.73254 -22.94595 212 ft 2 kts 179°
2026-04-24 19:27 16.73211 -22.94594 204 ft 9 kts 179°
2026-04-24 19:27 16.73165 -22.94594 206 ft 11 kts 179°
2026-04-24 19:27 16.73086 -22.94607 211 ft 13 kts 219°
2026-04-24 19:27 16.72986 -22.94691 202 ft 18 kts 181°
2026-04-24 19:28 16.72887 -22.94690 190 ft 24 kts 179°
2026-04-24 19:28 16.72725 -22.94690 201 ft 23 kts 180°
2026-04-24 19:28 16.72554 -22.94687 184 ft 26 kts 179°
2026-04-24 19:28 16.72417 -22.94703 183 ft 17 kts 216°
2026-04-24 19:29 16.72487 -22.94885 188 ft 21 kts 358°
2026-04-24 19:29 16.72810 -22.94887 188 ft 75 kts 360°
2026-04-24 19:29 16.73519 -22.94893 192 ft 128 kts
2026-04-24 19:30 16.74494 -22.94891 560 ft 140 kts
2026-04-24 19:30 16.75467 -22.94886 1171 ft 140 kts
2026-04-24 19:30 16.76446 -22.94896 1844 ft 142 kts
2026-04-24 19:30 16.77478 -22.94907 2319 ft 158 kts
2026-04-24 19:31 16.78658 -22.94917 2659 ft 181 kts
2026-04-24 19:31 16.80011 -22.94927 3002 ft 207 kts 359°
2026-04-24 19:31 16.81535 -22.94941 3473 ft 231 kts 359°
2026-04-24 19:31 16.83227 -22.94958 4007 ft 253 kts 358°
2026-04-24 19:32 16.84981 -22.95297 4744 ft 262 kts 333°
2026-04-24 19:32 16.86377 -22.96495 5589 ft 263 kts 304°
2026-04-24 19:32 16.87047 -22.98287 6477 ft 265 kts 276°
2026-04-24 19:32 16.87074 -23.00215 7336 ft 267 kts 270°
2026-04-24 19:33 16.87057 -23.02173 7810 ft 270 kts 270°
2026-04-24 19:33 16.87036 -23.04140 8357 ft 272 kts 270°
2026-04-24 19:33 16.87016 -23.06147 9225 ft 273 kts 269°
2026-04-24 19:33 16.86999 -23.08140 10066 ft 275 kts 269°
2026-04-24 19:34 16.86984 -23.10208 10403 ft 297 kts 269°
2026-04-24 19:34 16.86970 -23.12447 10590 ft 320 kts 269°
2026-04-24 19:34 16.86890 -23.14849 10720 ft 343 kts 264°
2026-04-24 19:34 16.86631 -23.17389 10944 ft 359 kts 264°
2026-04-24 19:35 16.86363 -23.20004 11457 ft 365 kts 264°
2026-04-24 19:35 16.86092 -23.22647 12064 ft 368 kts 264°
2026-04-24 19:35 16.85823 -23.25312 12679 ft 371 kts 264°
2026-04-24 19:35 16.85553 -23.28001 13333 ft 374 kts 264°
2026-04-24 19:36 16.85282 -23.30709 13941 ft 377 kts 264°
2026-04-24 19:36 16.85007 -23.33453 14474 ft 381 kts 264°
2026-04-24 19:36 16.84728 -23.36213 14998 ft 385 kts 264°
2026-04-24 19:36 16.84442 -23.39006 15511 ft 389 kts 264°
2026-04-24 19:37 16.84148 -23.41825 16011 ft 393 kts 264°
2026-04-24 19:37 16.83851 -23.44680 16527 ft 397 kts 264°
2026-04-24 19:37 16.83554 -23.47556 17024 ft 401 kts 264°
2026-04-24 19:37 16.83260 -23.50462 17503 ft 404 kts 264°
2026-04-24 19:38 16.82961 -23.53394 17966 ft 408 kts 264°
2026-04-24 19:38 16.82655 -23.56354 18398 ft 412 kts 264°
2026-04-24 19:38 16.82348 -23.59337 18787 ft 415 kts 264°
2026-04-24 19:38 16.82035 -23.62377 19195 ft 417 kts 265°
2026-04-24 19:39 16.81603 -23.65374 19584 ft 420 kts 258°
2026-04-24 19:39 16.80868 -23.68298 19986 ft 422 kts 257°
2026-04-24 19:39 16.80101 -23.71298 20385 ft 424 kts 257°
2026-04-24 19:39 16.79341 -23.74284 20766 ft 426 kts 257°
2026-04-24 19:40 16.78578 -23.77275 21142 ft 428 kts 257°
2026-04-24 19:40 16.77809 -23.80283 21505 ft 429 kts 257°
2026-04-24 19:40 16.77037 -23.83294 21864 ft 431 kts 258°
2026-04-24 19:40 16.76262 -23.86323 22197 ft 433 kts 258°
2026-04-24 19:41 16.75487 -23.89353 22526 ft 434 kts 258°
2026-04-24 19:41 16.74696 -23.92450 22843 ft 436 kts 258°
2026-04-24 19:41 16.73914 -23.95510 23144 ft 438 kts 258°
2026-04-24 19:41 16.73127 -23.98585 23444 ft 439 kts 258°
2026-04-24 19:42 16.72337 -24.01664 23705 ft 441 kts 258°
2026-04-24 19:42 16.71542 -24.04761 23941 ft 442 kts 258°
2026-04-24 19:42 16.70747 -24.07861 24146 ft 444 kts 258°
2026-04-24 19:42 16.69946 -24.10974 24371 ft 445 kts 258°
2026-04-24 19:43 16.69140 -24.14092 24585 ft 446 kts 258°
2026-04-24 19:43 16.68331 -24.17220 24800 ft 447 kts 258°
2026-04-24 19:43 16.67510 -24.20403 25012 ft 449 kts 258°
2026-04-24 19:43 16.66701 -24.23548 25218 ft 450 kts 258°
2026-04-24 19:44 16.65889 -24.26705 25423 ft 451 kts 258°
2026-04-24 19:44 16.65069 -24.29874 25624 ft 453 kts 258°
2026-04-24 19:44 16.64249 -24.33048 25825 ft 454 kts 258°
2026-04-24 19:44 16.63428 -24.36229 26039 ft 455 kts 258°
2026-04-24 19:45 16.62602 -24.39424 26230 ft 457 kts 258°
2026-04-24 19:45 16.61776 -24.42628 26418 ft 458 kts 258°
2026-04-24 19:45 16.60948 -24.45841 26614 ft 459 kts 258°
2026-04-24 19:45 16.60114 -24.49062 26798 ft 461 kts 258°
2026-04-24 19:46 16.59276 -24.52293 26978 ft 462 kts 258°
2026-04-24 19:46 16.58435 -24.55529 27153 ft 463 kts 258°
2026-04-24 19:46 16.57592 -24.58767 27410 ft 462 kts 258°
2026-04-24 19:46 16.56751 -24.61999 27684 ft 462 kts 258°
2026-04-24 19:47 16.55912 -24.65226 27958 ft 461 kts 258°
2026-04-24 19:47 16.55073 -24.68450 28242 ft 460 kts 258°
2026-04-24 19:47 16.54234 -24.71662 28522 ft 459 kts 258°
2026-04-24 19:47 16.53394 -24.74870 28811 ft 459 kts 258°
2026-04-24 19:48 16.52555 -24.78081 29102 ft 458 kts 258°
2026-04-24 19:48 16.51723 -24.81274 29406 ft 457 kts 258°
2026-04-24 19:48 16.50053 -24.87662 30030 ft 456 kts 258°
2026-04-24 19:49 16.48397 -24.94017 30575 ft 454 kts 258°
2026-04-24 19:49 16.46736 -25.00358 31144 ft 453 kts 258°
2026-04-24 19:50 16.44240 -25.09864 32057 ft 450 kts 258°
2026-04-24 19:50 16.43417 -25.13001 32383 ft 449 kts 258°
2026-04-24 19:51 16.41770 -25.19260 33056 ft 447 kts 258°
2026-04-24 19:51 16.40949 -25.22383 33406 ft 446 kts 258°
2026-04-24 19:52 16.39312 -25.28604 34125 ft 444 kts 257°
2026-04-24 19:52 16.38493 -25.31702 34464 ft 443 kts 257°
2026-04-24 19:52 16.37551 -25.34754 34786 ft 446 kts 249°
2026-04-24 19:52 16.36174 -25.37654 35113 ft 447 kts 246°
2026-04-24 19:53 16.34770 -25.40534 35450 ft 446 kts 246°
2026-04-24 19:53 16.33359 -25.43408 35789 ft 445 kts 246°
2026-04-24 19:53 16.30519 -25.49162 36445 ft 443 kts 246°
2026-04-24 19:54 16.29115 -25.52018 36759 ft 442 kts 246°
2026-04-24 19:54 16.28190 -25.53901 36966 ft 442 kts 246°
2026-04-24 19:54 16.26794 -25.56750 37269 ft 441 kts 246°
2026-04-24 19:54 16.25401 -25.59587 37565 ft 440 kts 245°
2026-04-24 19:55 16.24475 -25.61468 37759 ft 440 kts 245°
2026-04-24 19:55 16.22607 -25.65257 38001 ft 439 kts 245°
2026-04-24 19:55 16.21216 -25.68070 38028 ft 437 kts 245°
2026-04-24 19:56 16.18448 -25.73681 38026 ft 435 kts 245°
2026-04-24 19:56 16.15683 -25.79285 38025 ft 436 kts 245°
2026-04-24 19:57 16.12908 -25.84890 38032 ft 436 kts 245°
2026-04-24 19:57 16.10132 -25.90498 38030 ft 436 kts 245°
2026-04-24 19:58 16.07370 -25.96098 38031 ft 436 kts 245°
2026-04-24 19:58 16.04576 -26.01761 38030 ft 436 kts 245°
2026-04-24 19:59 16.01797 -26.07365 38030 ft 437 kts 245°
2026-04-24 19:59 15.99001 -26.12981 38031 ft 437 kts 245°
2026-04-24 20:00 15.96209 -26.18603 38032 ft 438 kts 245°
2026-04-24 20:00 15.93423 -26.24230 38033 ft 438 kts 245°
2026-04-24 20:01 15.90629 -26.29864 38035 ft 439 kts 245°
2026-04-24 20:01 15.87828 -26.35493 38038 ft 439 kts 245°
2026-04-24 20:02 15.85492 -26.40174 38037 ft 439 kts 245°
2026-04-24 20:02 15.82212 -26.46753 38037 ft 439 kts 245°
2026-04-24 20:03 15.79375 -26.52428 38041 ft 440 kts 245°
2026-04-24 20:03 15.76561 -26.58067 38036 ft 440 kts 245°
2026-04-24 20:04 15.73748 -26.63704 38047 ft 440 kts 245°
2026-04-24 20:04 15.70933 -26.69343 38041 ft 440 kts 245°
2026-04-24 20:05 15.68110 -26.74985 38041 ft 440 kts 245°
2026-04-24 20:05 15.65293 -26.80625 38055 ft 440 kts 245°
2026-04-24 20:06 15.62471 -26.86266 38042 ft 440 kts 244°
2026-04-24 20:06 15.59618 -26.91940 38039 ft 441 kts 244°
2026-04-24 20:07 15.57258 -26.96623 38040 ft 441 kts 244°
2026-04-24 20:07 15.53956 -27.03213 38034 ft 441 kts 244°
2026-04-24 20:08 15.51132 -27.08849 38036 ft 441 kts 244°
2026-04-24 20:08 15.48296 -27.14485 38033 ft 441 kts 244°
2026-04-24 20:09 15.45457 -27.20115 38034 ft 441 kts 244°
2026-04-24 20:09 15.42618 -27.25745 38033 ft 441 kts 244°
2026-04-24 20:10 15.39779 -27.31376 38035 ft 441 kts 244°
2026-04-24 20:10 15.36939 -27.37017 38027 ft 441 kts 244°
2026-04-24 20:11 15.34098 -27.42649 38028 ft 441 kts 244°
2026-04-24 20:11 15.31249 -27.48279 38026 ft 441 kts 244°
2026-04-24 20:12 15.28375 -27.53942 38023 ft 441 kts 244°
2026-04-24 20:12 15.25529 -27.59574 38027 ft 441 kts 244°
2026-04-24 20:13 15.22680 -27.65211 38029 ft 442 kts 244°
2026-04-24 20:13 15.19827 -27.70846 38027 ft 442 kts 244°
2026-04-24 20:14 15.16974 -27.76484 38029 ft 442 kts 244°
2026-04-24 20:14 15.14113 -27.82116 38027 ft 442 kts 244°
2026-04-24 20:15 15.11247 -27.87756 38029 ft 443 kts 244°
2026-04-24 20:15 15.08380 -27.93390 38029 ft 443 kts 244°
2026-04-24 20:16 15.05504 -27.99035 38039 ft 443 kts 244°
2026-04-24 20:16 15.02633 -28.04675 38028 ft 443 kts 243°
2026-04-24 20:17 14.99732 -28.10352 38024 ft 444 kts 243°
2026-04-24 20:17 14.95415 -28.18815 38033 ft 444 kts 244°
2026-04-24 20:18 14.92546 -28.24462 38036 ft 444 kts 243°
2026-04-24 20:18 14.89663 -28.30100 38025 ft 444 kts 243°
2026-04-24 20:19 14.86770 -28.35738 38037 ft 444 kts 243°
2026-04-24 20:19 14.83885 -28.41383 38032 ft 444 kts 243°
2026-04-24 20:20 14.80506 -28.46710 38028 ft 446 kts 228°
2026-04-24 20:20 14.75610 -28.50649 38023 ft 450 kts 211°
2026-04-24 20:21 14.70143 -28.53800 38019 ft 450 kts 211°
2026-04-24 20:21 14.64674 -28.56948 38021 ft 450 kts 211°
2026-04-24 20:22 14.59193 -28.60100 38018 ft 451 kts 211°
2026-04-24 20:22 14.53717 -28.63254 38023 ft 451 kts 211°
2026-04-24 20:23 14.48235 -28.66403 38036 ft 451 kts 211°
2026-04-24 20:23 14.42758 -28.69548 38020 ft 450 kts 211°
2026-04-24 20:24 14.37280 -28.72692 38026 ft 451 kts 211°
2026-04-24 20:24 14.32689 -28.75320 38033 ft 450 kts 211°
2026-04-24 20:25 14.27206 -28.78458 38039 ft 450 kts 211°
2026-04-24 20:25 14.21735 -28.81589 38036 ft 450 kts 211°
2026-04-24 20:26 14.16223 -28.84747 38046 ft 450 kts 211°
2026-04-24 20:26 14.10754 -28.87885 38037 ft 449 kts 211°
2026-04-24 20:27 14.05289 -28.91010 38044 ft 449 kts 211°
2026-04-24 20:27 13.99822 -28.94129 38042 ft 449 kts 211°
2026-04-24 20:28 13.94355 -28.97251 38039 ft 449 kts 211°
2026-04-24 20:28 13.88887 -29.00375 38034 ft 449 kts 211°
2026-04-24 20:29 13.83424 -29.03489 38039 ft 449 kts 211°
2026-04-24 20:29 13.77958 -29.06607 38040 ft 448 kts 211°
2026-04-24 20:30 13.72505 -29.09711 38041 ft 448 kts 211°
2026-04-24 20:30 13.67045 -29.12819 38037 ft 449 kts 211°
2026-04-24 20:31 13.61539 -29.15962 38033 ft 449 kts 211°
2026-04-24 20:31 13.56118 -29.19049 38033 ft 449 kts 210°
2026-04-24 20:32 13.50611 -29.22178 38034 ft 449 kts 210°
2026-04-24 20:32 13.45156 -29.25282 38036 ft 449 kts 210°
2026-04-24 20:33 13.39692 -29.28383 38041 ft 448 kts 210°
2026-04-24 20:33 13.34231 -29.31481 38035 ft 448 kts 210°
2026-04-24 20:34 13.28771 -29.34581 38038 ft 448 kts 210°
2026-04-24 20:34 13.23320 -29.37678 38032 ft 448 kts 210°
2026-04-24 20:35 13.17828 -29.40794 38036 ft 448 kts 210°
2026-04-24 20:35 13.12364 -29.43882 38033 ft 448 kts 210°
2026-04-24 20:36 13.06909 -29.46980 38031 ft 448 kts 210°
2026-04-24 20:36 13.01445 -29.50083 38032 ft 448 kts 210°
2026-04-24 20:37 12.95978 -29.53175 38034 ft 449 kts 210°
2026-04-24 20:37 12.90513 -29.56261 38030 ft 448 kts 210°
2026-04-24 20:38 12.85050 -29.59349 38025 ft 448 kts 210°
2026-04-24 20:38 12.79584 -29.62437 38021 ft 449 kts 210°
2026-04-24 20:39 12.74109 -29.65529 38022 ft 450 kts 210°
2026-04-24 20:39 12.68619 -29.68618 38025 ft 450 kts 209°
2026-04-24 20:40 12.63132 -29.71710 38020 ft 450 kts 209°
2026-04-24 20:40 12.57641 -29.74803 38022 ft 451 kts 209°
2026-04-24 20:41 12.52148 -29.77908 38013 ft 451 kts 209°
2026-04-24 20:41 12.46648 -29.81011 38008 ft 452 kts 209°
2026-04-24 20:42 12.41104 -29.84133 38010 ft 452 kts 209°
2026-04-24 20:42 12.35589 -29.87235 38012 ft 453 kts 209°
2026-04-24 20:43 12.30070 -29.90342 38012 ft 453 kts 209°
2026-04-24 20:43 12.24549 -29.93451 38022 ft 453 kts 209°
2026-04-24 20:44 12.19025 -29.96553 38023 ft 453 kts 209°
2026-04-24 20:44 12.13494 -29.99653 38025 ft 453 kts 209°
2026-04-24 20:45 12.07960 -30.02763 38028 ft 453 kts 208°
2026-04-24 20:45 12.02433 -30.05866 38027 ft 453 kts 208°
2026-04-24 20:46 11.96906 -30.08965 38025 ft 453 kts 208°
2026-04-24 20:46 11.91378 -30.12067 38025 ft 453 kts 208°
2026-04-24 20:47 11.85844 -30.15162 38023 ft 453 kts 208°
2026-04-24 20:47 11.80311 -30.18260 38019 ft 454 kts 208°
2026-04-24 20:48 11.74783 -30.21362 38020 ft 454 kts 208°
2026-04-24 20:48 11.69242 -30.24460 38016 ft 454 kts 208°
2026-04-24 20:49 11.63700 -30.27559 38013 ft 454 kts 208°
2026-04-24 20:49 11.58123 -30.30677 38011 ft 455 kts 208°
2026-04-24 20:50 11.52576 -30.33778 38009 ft 455 kts 208°
2026-04-24 20:50 11.47023 -30.36881 38011 ft 455 kts 208°
2026-04-24 20:51 11.41472 -30.39980 38005 ft 455 kts 208°
2026-04-24 20:51 11.35914 -30.43078 38006 ft 455 kts 208°
2026-04-24 20:52 11.30351 -30.46178 38013 ft 456 kts 208°
2026-04-24 20:52 11.24786 -30.49279 38003 ft 456 kts 208°
2026-04-24 20:53 11.19226 -30.52382 38004 ft 456 kts 208°
2026-04-24 20:53 11.13654 -30.55487 38011 ft 456 kts 208°
2026-04-24 20:54 11.08077 -30.58586 38004 ft 456 kts 208°
2026-04-24 20:54 11.02504 -30.61683 38009 ft 457 kts 208°
2026-04-24 20:55 10.96934 -30.64785 38006 ft 457 kts 208°
2026-04-24 20:55 10.91363 -30.67892 38008 ft 457 kts 208°
2026-04-24 20:56 10.86692 -30.70491 38007 ft 457 kts 208°
2026-04-24 20:56 10.81118 -30.73588 38007 ft 457 kts 208°
2026-04-24 20:57 10.75541 -30.76679 38005 ft 456 kts 208°
2026-04-24 20:57 10.69975 -30.79793 38004 ft 456 kts 208°
2026-04-24 20:58 10.64422 -30.82920 38007 ft 456 kts 208°
2026-04-24 20:58 10.58866 -30.86038 38013 ft 456 kts 208°
2026-04-24 20:59 10.53300 -30.89126 38008 ft 456 kts 208°
2026-04-24 20:59 10.47726 -30.92183 38010 ft 455 kts 207°
2026-04-24 21:00 10.42159 -30.95237 38006 ft 455 kts 207°
2026-04-24 21:00 10.36599 -30.98310 38009 ft 454 kts 208°
2026-04-24 21:01 10.31048 -31.01371 38007 ft 454 kts 207°
2026-04-24 21:01 10.25494 -31.04422 38009 ft 453 kts 207°
2026-04-24 21:02 10.19950 -31.07470 38002 ft 453 kts 207°
2026-04-24 21:02 10.14370 -31.10538 38003 ft 453 kts 207°
2026-04-24 21:03 10.08847 -31.13588 37997 ft 452 kts 207°
2026-04-24 21:03 10.03319 -31.16630 38005 ft 452 kts 207°
2026-04-24 21:04 9.97792 -31.19653 38006 ft 451 kts 207°
2026-04-24 21:04 9.92279 -31.22685 38000 ft 451 kts 207°
2026-04-24 21:05 9.86763 -31.25707 37998 ft 450 kts 207°
2026-04-24 21:05 9.81256 -31.28732 37997 ft 450 kts 207°
2026-04-24 21:06 9.75748 -31.31755 38000 ft 450 kts 207°
2026-04-24 21:06 9.70249 -31.34773 38001 ft 449 kts 207°
2026-04-24 21:07 9.64752 -31.37782 37997 ft 449 kts 207°
2026-04-24 21:07 9.59255 -31.40787 37999 ft 449 kts 207°
2026-04-24 21:08 9.53763 -31.43800 37989 ft 449 kts 207°
2026-04-24 21:08 9.48277 -31.46814 37987 ft 449 kts 207°
2026-04-24 21:09 9.42781 -31.49820 37981 ft 449 kts 207°
2026-04-24 21:09 9.37286 -31.52820 37978 ft 449 kts 207°
2026-04-24 21:10 9.31790 -31.55829 37979 ft 449 kts 207°
2026-04-24 21:10 9.26254 -31.58857 37973 ft 449 kts 207°
2026-04-24 21:11 9.20755 -31.61868 37974 ft 450 kts 206°
2026-04-24 21:11 9.15244 -31.64867 37969 ft 450 kts 206°
2026-04-24 21:12 9.10664 -31.67366 37978 ft 450 kts 207°
2026-04-24 21:12 9.04220 -31.70884 37976 ft 450 kts 206°
2026-04-24 21:13 8.98700 -31.73897 37966 ft 451 kts 206°
2026-04-24 21:13 8.93181 -31.76913 37976 ft 451 kts 206°
2026-04-24 21:14 8.87652 -31.79925 37975 ft 451 kts 206°
2026-04-24 21:14 8.82119 -31.82943 37967 ft 452 kts 206°
2026-04-24 21:15 8.76585 -31.85962 37971 ft 452 kts 206°
2026-04-24 21:15 8.71045 -31.88977 37972 ft 452 kts 206°
2026-04-24 21:16 8.65506 -31.92001 37975 ft 453 kts 206°
2026-04-24 21:16 8.59961 -31.95025 37967 ft 453 kts 206°
2026-04-24 21:17 8.54412 -31.98040 37970 ft 453 kts 206°
2026-04-24 21:17 8.49759 -32.00571 37980 ft 453 kts 206°
2026-04-24 21:18 8.43299 -32.04082 37972 ft 454 kts 206°
2026-04-24 21:18 8.37704 -32.07126 37970 ft 454 kts 206°
2026-04-24 21:19 8.32148 -32.10150 37971 ft 454 kts 206°
2026-04-24 21:19 8.26583 -32.13172 37969 ft 454 kts 206°
2026-04-24 21:20 8.18234 -32.17701 37976 ft 454 kts 206°
2026-04-24 21:21 8.12667 -32.20728 37968 ft 454 kts 206°
2026-04-24 21:21 8.07098 -32.23748 37967 ft 455 kts 206°
2026-04-24 21:22 8.01519 -32.26771 37969 ft 455 kts 206°
2026-04-24 21:22 7.95941 -32.29794 37976 ft 455 kts 206°
2026-04-24 21:23 7.90361 -32.32816 37972 ft 456 kts 206°
2026-04-24 21:23 7.84775 -32.35846 37971 ft 456 kts 206°
2026-04-24 21:24 7.79188 -32.38880 37971 ft 456 kts 206°
2026-04-24 21:24 7.73599 -32.41910 37963 ft 456 kts 206°
2026-04-24 21:25 7.68001 -32.44939 37965 ft 457 kts 206°
2026-04-24 21:25 7.62400 -32.47972 37966 ft 457 kts 206°
2026-04-24 21:26 7.56801 -32.51007 37969 ft 457 kts 206°
2026-04-24 21:26 7.51154 -32.54061 37966 ft 458 kts 206°
2026-04-24 21:27 7.45542 -32.57094 37965 ft 458 kts 206°
2026-04-24 21:27 7.39923 -32.60123 37964 ft 458 kts 206°
2026-04-24 21:28 7.34311 -32.63161 37964 ft 458 kts 206°
2026-04-24 21:28 7.29639 -32.65691 37968 ft 458 kts 206°
2026-04-24 21:29 7.24017 -32.68731 37968 ft 459 kts 206°
2026-04-24 21:29 7.18389 -32.71762 37972 ft 459 kts 206°
2026-04-24 21:30 7.12766 -32.74803 37971 ft 459 kts 206°
2026-04-24 21:30 7.07140 -32.77849 37980 ft 459 kts 206°
2026-04-24 21:31 7.01514 -32.80889 37972 ft 459 kts 206°
2026-04-24 21:31 6.95872 -32.83927 37975 ft 459 kts 206°
2026-04-24 21:32 6.90199 -32.86984 37978 ft 460 kts 206°
2026-04-24 21:32 6.84561 -32.90025 37976 ft 460 kts 206°
2026-04-24 21:33 6.78921 -32.93061 37968 ft 460 kts 206°
2026-04-24 21:33 6.73281 -32.96104 37972 ft 460 kts 206°
2026-04-24 21:34 6.67642 -32.99144 37969 ft 460 kts 206°
2026-04-24 21:34 6.62006 -33.02186 37971 ft 460 kts 206°
2026-04-24 21:35 6.56365 -33.05225 37967 ft 460 kts 206°
2026-04-24 21:35 6.50719 -33.08262 37969 ft 460 kts 206°
2026-04-24 21:36 6.45066 -33.11294 37968 ft 461 kts 205°
2026-04-24 21:36 6.39413 -33.14333 37972 ft 461 kts 206°
2026-04-24 21:37 6.33756 -33.17386 37966 ft 461 kts 206°
2026-04-24 21:37 6.28089 -33.20424 37969 ft 462 kts 205°
2026-04-24 21:38 6.22421 -33.23454 37973 ft 462 kts 205°
2026-04-24 21:38 6.16753 -33.26488 37965 ft 461 kts 205°
2026-04-24 21:39 6.11085 -33.29517 37967 ft 461 kts 205°
2026-04-24 21:39 6.05416 -33.32544 37969 ft 461 kts 205°
2026-04-24 21:40 5.99712 -33.35592 37965 ft 461 kts 205°
2026-04-24 21:40 5.94048 -33.38620 37964 ft 461 kts 205°
2026-04-24 21:41 5.88382 -33.41652 37967 ft 462 kts 205°
2026-04-24 21:41 5.82707 -33.44677 37958 ft 462 kts 205°
2026-04-24 21:42 5.77035 -33.47705 37962 ft 462 kts 205°
2026-04-24 21:42 5.71365 -33.50738 37968 ft 462 kts 205°
2026-04-24 21:43 5.65687 -33.53770 37963 ft 462 kts 205°
2026-04-24 21:43 5.60004 -33.56794 37965 ft 462 kts 205°
2026-04-24 21:44 5.54325 -33.59827 37964 ft 463 kts 205°
2026-04-24 21:44 5.48637 -33.62860 37968 ft 463 kts 205°
2026-04-24 21:45 5.42952 -33.65894 37959 ft 463 kts 205°
2026-04-24 21:45 5.37261 -33.68927 37962 ft 463 kts 205°
2026-04-24 21:46 5.31561 -33.71958 37967 ft 463 kts 205°
2026-04-24 21:46 5.25866 -33.74993 37963 ft 464 kts 205°
2026-04-24 21:47 5.20133 -33.78054 37961 ft 464 kts 205°
2026-04-24 21:47 5.14470 -33.81072 37963 ft 464 kts 205°
2026-04-24 21:48 5.08734 -33.84120 37962 ft 464 kts 205°
2026-04-24 21:48 5.03028 -33.87148 37953 ft 464 kts 205°
2026-04-24 21:49 4.97325 -33.90184 37955 ft 464 kts 205°
2026-04-24 21:49 4.91624 -33.93226 37960 ft 464 kts 205°
2026-04-24 21:50 4.85920 -33.96270 37964 ft 464 kts 205°
2026-04-24 21:50 4.80212 -33.99305 37959 ft 464 kts 205°
2026-04-24 21:51 4.74500 -34.02340 37966 ft 465 kts 205°
2026-04-24 21:51 4.68782 -34.05378 37964 ft 465 kts 205°
2026-04-24 21:52 4.63067 -34.08420 37958 ft 465 kts 205°
2026-04-24 21:52 4.57355 -34.11465 37960 ft 465 kts 205°
2026-04-24 21:53 4.51643 -34.14501 37965 ft 465 kts 205°
2026-04-24 21:53 4.45924 -34.17538 37966 ft 465 kts 205°
2026-04-24 21:54 4.40173 -34.20616 37970 ft 465 kts 205°
2026-04-24 21:54 4.34503 -34.23661 37962 ft 465 kts 205°
2026-04-24 21:55 4.28759 -34.26746 37963 ft 465 kts 205°
2026-04-24 21:55 4.23051 -34.29804 37963 ft 465 kts 205°
2026-04-24 21:56 4.17342 -34.32857 37967 ft 465 kts 205°
2026-04-24 21:56 4.11631 -34.35908 37961 ft 466 kts 205°
2026-04-24 21:57 4.05914 -34.38972 37964 ft 466 kts 205°
2026-04-24 21:57 4.00196 -34.42032 37967 ft 466 kts 205°
2026-04-24 21:58 3.94476 -34.45085 37966 ft 466 kts 205°
2026-04-24 21:58 3.88757 -34.48142 37966 ft 466 kts 205°
2026-04-24 21:59 3.83033 -34.51203 37970 ft 466 kts 205°
2026-04-24 21:59 3.77311 -34.54264 37969 ft 466 kts 205°
2026-04-24 22:00 3.71591 -34.57332 37970 ft 466 kts 205°
2026-04-24 22:00 3.65867 -34.60394 37968 ft 467 kts 205°
2026-04-24 22:01 3.60138 -34.63451 37970 ft 467 kts 205°
2026-04-24 22:01 3.54402 -34.66504 37959 ft 467 kts 205°
2026-04-24 22:02 3.48673 -34.69564 37963 ft 467 kts 205°
2026-04-24 22:02 3.43873 -34.72131 37964 ft 467 kts 205°
2026-04-24 22:03 3.38145 -34.75194 37956 ft 467 kts 205°
2026-04-24 22:03 3.32412 -34.78255 37961 ft 467 kts 205°
2026-04-24 22:04 3.26672 -34.81329 37955 ft 468 kts 205°
2026-04-24 22:04 3.20928 -34.84398 37966 ft 468 kts 205°
2026-04-24 22:05 3.15174 -34.87457 37963 ft 469 kts 205°
2026-04-24 22:05 3.09421 -34.90530 37955 ft 469 kts 205°
2026-04-24 22:06 3.03667 -34.93606 37960 ft 469 kts 205°
2026-04-24 22:06 2.97909 -34.96684 37957 ft 469 kts 205°
2026-04-24 22:07 2.92152 -34.99753 37955 ft 469 kts 205°
2026-04-24 22:07 2.86347 -35.02838 37960 ft 469 kts 205°
2026-04-24 22:08 2.80581 -35.05915 37958 ft 470 kts 205°
2026-04-24 22:08 2.74810 -35.08993 37972 ft 470 kts 205°
2026-04-24 22:09 2.69040 -35.12067 37970 ft 470 kts 205°
2026-04-24 22:09 2.63274 -35.15136 37968 ft 469 kts 205°
2026-04-24 22:10 2.57511 -35.18196 37966 ft 469 kts 205°
2026-04-24 22:10 2.51756 -35.21252 37965 ft 468 kts 205°
2026-04-24 22:11 2.46005 -35.24309 37969 ft 468 kts 205°
2026-04-24 22:11 2.40259 -35.27355 37960 ft 467 kts 205°
2026-04-24 22:12 2.34514 -35.30393 37956 ft 467 kts 205°
2026-04-24 22:12 2.28779 -35.33438 37961 ft 467 kts 205°
2026-04-24 22:13 2.23048 -35.36481 37963 ft 466 kts 205°
2026-04-24 22:13 2.17321 -35.39521 37962 ft 466 kts 205°
2026-04-24 22:14 2.11594 -35.42556 37956 ft 466 kts 205°
2026-04-24 22:14 2.05870 -35.45589 37960 ft 466 kts 205°
2026-04-24 22:15 2.00146 -35.48630 37961 ft 466 kts 205°
2026-04-24 22:15 1.94381 -35.51683 37962 ft 466 kts 205°
2026-04-24 22:16 1.88661 -35.54717 37962 ft 465 kts 205°
2026-04-24 22:16 1.82942 -35.57747 37959 ft 465 kts 205°
2026-04-24 22:17 1.77224 -35.60775 37961 ft 465 kts 205°
2026-04-24 22:17 1.71512 -35.63805 37958 ft 465 kts 205°
2026-04-24 22:18 1.65799 -35.66840 37959 ft 465 kts 205°
2026-04-24 22:18 1.60089 -35.69872 37958 ft 465 kts 205°
2026-04-24 22:19 1.54378 -35.72904 37959 ft 465 kts 205°
2026-04-24 22:19 1.48668 -35.75928 37957 ft 465 kts 205°
2026-04-24 22:20 1.42952 -35.78951 37947 ft 465 kts 205°
2026-04-24 22:20 1.37235 -35.81972 37950 ft 465 kts 205°
2026-04-24 22:21 1.31514 -35.84999 37944 ft 465 kts 205°
2026-04-24 22:21 1.25802 -35.88034 37948 ft 465 kts 205°
2026-04-24 22:22 1.20080 -35.91072 37955 ft 465 kts 205°
2026-04-24 22:22 1.14361 -35.94104 37955 ft 465 kts 205°
2026-04-24 22:23 1.08640 -35.97126 37952 ft 465 kts 205°
2026-04-24 22:23 1.02884 -36.00183 37960 ft 465 kts 205°
2026-04-24 22:24 0.97170 -36.03213 37961 ft 465 kts 205°
2026-04-24 22:24 0.91459 -36.06234 37962 ft 464 kts 205°
2026-04-24 22:25 0.85749 -36.09255 37958 ft 464 kts 205°
2026-04-24 22:25 0.80049 -36.12280 37955 ft 464 kts 205°
2026-04-24 22:26 0.74347 -36.15310 37949 ft 464 kts 205°
2026-04-24 22:26 0.68637 -36.18337 37950 ft 464 kts 205°
2026-04-24 22:27 0.62925 -36.21357 37957 ft 465 kts 205°
2026-04-24 22:27 0.57205 -36.24383 37948 ft 465 kts 205°
2026-04-24 22:28 0.51483 -36.27411 37954 ft 466 kts 205°
2026-04-24 22:28 0.45720 -36.30461 37959 ft 466 kts 205°
2026-04-24 22:29 0.37123 -36.35022 37963 ft 466 kts 205°
2026-04-24 22:29 0.31398 -36.38055 37960 ft 466 kts 205°
2026-04-24 22:30 0.25630 -36.41104 37963 ft 466 kts 205°
2026-04-24 22:30 0.19935 -36.44111 37960 ft 466 kts 205°
2026-04-24 22:31 0.14170 -36.47168 37963 ft 466 kts 205°
2026-04-24 22:31 0.09370 -36.49709 37955 ft 466 kts 205°
2026-04-24 22:32 0.03644 -36.52749 37948 ft 466 kts 205°
2026-04-24 22:32 -0.02089 -36.55786 37934 ft 466 kts 205°
2026-04-24 22:33 -0.07819 -36.58824 37941 ft 466 kts 205°
2026-04-24 22:33 -0.13546 -36.61853 37947 ft 466 kts 205°
2026-04-24 22:34 -0.19278 -36.64883 37950 ft 466 kts 205°
2026-04-24 22:34 -0.25005 -36.67919 37951 ft 466 kts 205°
2026-04-24 22:35 -0.30729 -36.70952 37953 ft 466 kts 205°
2026-04-24 22:35 -0.36490 -36.74008 37952 ft 466 kts 205°
2026-04-24 22:36 -0.42174 -36.77020 37943 ft 466 kts 205°
2026-04-24 22:36 -0.47942 -36.80067 37941 ft 466 kts 205°
2026-04-24 22:37 -0.53666 -36.83096 37942 ft 466 kts 205°
2026-04-24 22:37 -0.59384 -36.86128 37940 ft 466 kts 205°
2026-04-24 22:38 -0.65106 -36.89167 37942 ft 466 kts 205°
2026-04-24 22:38 -0.70870 -36.92213 37941 ft 466 kts 204°
2026-04-24 22:39 -0.76594 -36.95243 37941 ft 466 kts 204°
2026-04-24 22:39 -0.82325 -36.98281 37946 ft 466 kts 205°
2026-04-24 22:40 -0.88046 -37.01313 37943 ft 466 kts 204°
2026-04-24 22:40 -0.93778 -37.04346 37944 ft 466 kts 204°
2026-04-24 22:41 -0.99615 -37.07149 37946 ft 464 kts 200°
2026-04-24 22:41 -1.05571 -37.09628 37943 ft 464 kts 199°
2026-04-24 22:42 -1.11542 -37.12086 37945 ft 464 kts 199°
2026-04-24 22:42 -1.17482 -37.14644 37949 ft 465 kts 200°
2026-04-24 22:43 -1.23415 -37.17240 37947 ft 465 kts 200°
2026-04-24 22:43 -1.29351 -37.19821 37950 ft 466 kts 200°
2026-04-24 22:44 -1.35346 -37.22405 37950 ft 466 kts 200°
2026-04-24 22:44 -1.41297 -37.24971 37950 ft 466 kts 200°
2026-04-24 22:45 -1.47289 -37.27566 37955 ft 466 kts 200°
2026-04-24 22:45 -1.53242 -37.30143 37964 ft 466 kts 200°
2026-04-24 22:46 -1.59190 -37.32719 37963 ft 466 kts 200°
2026-04-24 22:46 -1.65134 -37.35285 37964 ft 465 kts 200°
2026-04-24 22:47 -1.71075 -37.37851 37970 ft 465 kts 200°
2026-04-24 22:47 -1.77010 -37.40415 37966 ft 464 kts 200°
2026-04-24 22:48 -1.82933 -37.42980 37972 ft 464 kts 200°
2026-04-24 22:48 -1.88860 -37.45546 37973 ft 464 kts 200°
2026-04-24 22:49 -1.94777 -37.48107 37976 ft 463 kts 200°
2026-04-24 22:49 -2.00689 -37.50658 37975 ft 463 kts 200°
2026-04-24 22:50 -2.06637 -37.53223 37978 ft 462 kts 200°
2026-04-24 22:50 -2.12530 -37.55767 37975 ft 461 kts 200°
2026-04-24 22:51 -2.18417 -37.58320 37971 ft 461 kts 200°
2026-04-24 22:51 -2.24299 -37.60874 37969 ft 461 kts 200°
2026-04-24 22:52 -2.30180 -37.63423 37968 ft 461 kts 200°
2026-04-24 22:52 -2.36065 -37.65967 37962 ft 461 kts 200°
2026-04-24 22:53 -2.41951 -37.68509 37962 ft 461 kts 200°
2026-04-24 22:53 -2.47842 -37.71059 37963 ft 462 kts 200°
2026-04-24 22:54 -2.53738 -37.73610 37965 ft 462 kts 200°
2026-04-24 22:54 -2.59634 -37.76161 37966 ft 462 kts 200°
2026-04-24 22:55 -2.65565 -37.78739 37969 ft 462 kts 200°
2026-04-24 22:55 -2.71461 -37.81298 37970 ft 462 kts 200°
2026-04-24 22:56 -2.77361 -37.83840 37965 ft 461 kts 200°
2026-04-24 22:56 -2.83253 -37.86378 37968 ft 461 kts 200°
2026-04-24 22:57 -2.89152 -37.88937 37972 ft 461 kts 200°
2026-04-24 22:57 -2.95036 -37.91493 37973 ft 461 kts 200°
2026-04-24 22:58 -3.00915 -37.94049 37971 ft 461 kts 200°
2026-04-24 22:58 -3.06873 -37.96625 37958 ft 471 kts 201°
2026-04-24 22:59 -3.12909 -37.99248 37961 ft 474 kts 201°
2026-04-24 23:00 -3.21888 -38.03416 37961 ft 474 kts 203°
2026-04-24 23:00 -3.27846 -38.06228 37964 ft 473 kts 203°
2026-04-24 23:01 -3.33818 -38.09012 37969 ft 473 kts 203°
2026-04-24 23:01 -3.39800 -38.11775 37973 ft 473 kts 203°
2026-04-24 23:02 -3.44809 -38.14087 37972 ft 473 kts 203°
2026-04-24 23:02 -3.50683 -38.17030 37975 ft 474 kts 212°
2026-04-24 23:03 -3.55563 -38.21492 37970 ft 475 kts 232°
2026-04-24 23:03 -3.59213 -38.27004 37969 ft 475 kts 237°
2026-04-24 23:04 -3.62811 -38.32551 37970 ft 475 kts 236°
2026-04-24 23:04 -3.66417 -38.38097 37976 ft 474 kts 236°
2026-04-24 23:05 -3.70009 -38.43630 37970 ft 474 kts 236°
2026-04-24 23:05 -3.73589 -38.49151 37971 ft 472 kts 236°
2026-04-24 23:06 -3.77158 -38.54669 37972 ft 471 kts 236°
2026-04-24 23:06 -3.80632 -38.60236 37967 ft 471 kts 238°
2026-04-24 23:07 -3.83994 -38.65855 37973 ft 470 kts 238°
2026-04-24 23:07 -3.87355 -38.71466 37979 ft 470 kts 238°
2026-04-24 23:08 -3.90743 -38.77052 37985 ft 469 kts 238°
2026-04-24 23:08 -3.94135 -38.82628 37989 ft 468 kts 238°
2026-04-24 23:09 -3.97515 -38.88198 37992 ft 468 kts 238°
2026-04-24 23:09 -4.00886 -38.93767 37993 ft 467 kts 238°
2026-04-24 23:10 -4.04255 -38.99335 37996 ft 467 kts 238°
2026-04-24 23:10 -4.07627 -39.04898 37997 ft 467 kts 238°
2026-04-24 23:11 -4.11000 -39.10449 37996 ft 466 kts 238°
2026-04-24 23:11 -4.14385 -39.16026 37995 ft 466 kts 238°
2026-04-24 23:12 -4.17738 -39.21577 37997 ft 465 kts 238°
2026-04-24 23:12 -4.21083 -39.27116 37996 ft 464 kts 238°
2026-04-24 23:13 -4.24426 -39.32655 37996 ft 464 kts 238°
2026-04-24 23:13 -4.27776 -39.38185 37996 ft 464 kts 238°
2026-04-24 23:14 -4.31134 -39.43722 37993 ft 464 kts 238°
2026-04-24 23:14 -4.34478 -39.49252 38001 ft 464 kts 238°
2026-04-24 23:15 -4.38442 -39.54319 38001 ft 463 kts 222°
2026-04-24 23:15 -4.43557 -39.58227 37998 ft 462 kts 216°
2026-04-24 23:16 -4.48743 -39.62053 37998 ft 463 kts 216°
2026-04-24 23:16 -4.53923 -39.65899 37994 ft 463 kts 216°
2026-04-24 23:17 -4.59099 -39.69745 37992 ft 463 kts 216°
2026-04-24 23:17 -4.64285 -39.73584 37992 ft 463 kts 216°
2026-04-24 23:18 -4.69475 -39.77414 37998 ft 464 kts 216°
2026-04-24 23:18 -4.74669 -39.81257 37998 ft 464 kts 216°
2026-04-24 23:19 -4.79872 -39.85096 37999 ft 464 kts 216°
2026-04-24 23:19 -4.85073 -39.88938 38002 ft 464 kts 216°
2026-04-24 23:20 -4.90265 -39.92778 38001 ft 464 kts 216°
2026-04-24 23:20 -4.95494 -39.96647 38001 ft 464 kts 216°
2026-04-24 23:21 -5.00697 -40.00496 38001 ft 465 kts 216°
2026-04-24 23:21 -5.05906 -40.04344 37998 ft 465 kts 215°
2026-04-24 23:22 -5.11107 -40.08194 37994 ft 465 kts 216°
2026-04-24 23:22 -5.16315 -40.12056 37993 ft 466 kts 216°
2026-04-24 23:23 -5.21529 -40.15918 37996 ft 466 kts 215°
2026-04-24 23:23 -5.26745 -40.19781 37992 ft 466 kts 215°
2026-04-24 23:24 -5.31967 -40.23648 37991 ft 467 kts 215°
2026-04-24 23:24 -5.37176 -40.27502 37987 ft 467 kts 215°
2026-04-24 23:25 -5.42406 -40.31376 37986 ft 467 kts 215°
2026-04-24 23:25 -5.47634 -40.35259 37992 ft 467 kts 215°
2026-04-24 23:26 -5.52865 -40.39138 37991 ft 467 kts 215°
2026-04-24 23:26 -5.58091 -40.43014 37993 ft 468 kts 215°
2026-04-24 23:27 -5.63332 -40.46891 37990 ft 468 kts 215°
2026-04-24 23:27 -5.68603 -40.50799 37990 ft 468 kts 215°
2026-04-24 23:28 -5.73840 -40.54688 37987 ft 468 kts 215°
2026-04-24 23:28 -5.79077 -40.58574 37987 ft 468 kts 215°
2026-04-24 23:29 -5.84316 -40.62466 37992 ft 469 kts 215°
2026-04-24 23:29 -5.89564 -40.66370 37991 ft 469 kts 215°
2026-04-24 23:30 -5.94806 -40.70269 37995 ft 469 kts 216°
2026-04-24 23:30 -6.00061 -40.74173 38000 ft 469 kts 215°
2026-04-24 23:31 -6.05307 -40.78071 37999 ft 469 kts 215°
2026-04-24 23:31 -6.10547 -40.81979 38005 ft 469 kts 216°
2026-04-24 23:32 -6.15790 -40.85887 38010 ft 469 kts 216°
2026-04-24 23:32 -6.21037 -40.89790 38008 ft 469 kts 215°
2026-04-24 23:33 -6.26272 -40.93687 38015 ft 468 kts 216°
2026-04-24 23:33 -6.30657 -40.96958 38017 ft 468 kts 216°
2026-04-24 23:34 -6.35883 -41.00855 38017 ft 468 kts 215°
2026-04-24 23:34 -6.41109 -41.04741 38014 ft 467 kts 215°
2026-04-24 23:35 -6.46336 -41.08628 38014 ft 467 kts 215°
2026-04-24 23:35 -6.51552 -41.12519 38007 ft 467 kts 215°
2026-04-24 23:36 -6.56774 -41.16416 37998 ft 467 kts 215°
2026-04-24 23:36 -6.62002 -41.20312 37994 ft 468 kts 215°
2026-04-24 23:37 -6.67225 -41.24212 37990 ft 468 kts 215°
2026-04-24 23:37 -6.75098 -41.30108 37988 ft 469 kts 215°
2026-04-24 23:38 -6.80343 -41.34014 37982 ft 469 kts 215°
2026-04-24 23:38 -6.85590 -41.37916 37979 ft 469 kts 215°
2026-04-24 23:39 -6.90869 -41.41860 37976 ft 470 kts 215°
2026-04-24 23:39 -6.96120 -41.45787 37979 ft 470 kts 215°
2026-04-24 23:40 -7.01374 -41.49711 37978 ft 470 kts 215°
2026-04-24 23:40 -7.06625 -41.53637 37974 ft 470 kts 215°
2026-04-24 23:41 -7.11875 -41.57574 37976 ft 470 kts 215°
2026-04-24 23:41 -7.17123 -41.61504 37976 ft 470 kts 215°
2026-04-24 23:42 -7.22369 -41.65434 37974 ft 470 kts 215°
2026-04-24 23:42 -7.27617 -41.69362 37970 ft 470 kts 215°
2026-04-24 23:43 -7.32868 -41.73290 37969 ft 470 kts 215°
2026-04-24 23:43 -7.38113 -41.77212 37976 ft 470 kts 216°
2026-04-24 23:44 -7.43352 -41.81149 37970 ft 470 kts 216°
2026-04-24 23:44 -7.48594 -41.85081 37975 ft 470 kts 216°
2026-04-24 23:45 -7.53838 -41.89001 37979 ft 470 kts 215°
2026-04-24 23:45 -7.59113 -41.92956 37982 ft 469 kts 216°
2026-04-24 23:46 -7.64342 -41.96887 37976 ft 469 kts 216°
2026-04-24 23:46 -7.69568 -42.00809 37977 ft 468 kts 216°
2026-04-24 23:47 -7.74784 -42.04720 37974 ft 467 kts 216°
2026-04-24 23:47 -7.80003 -42.08634 37972 ft 467 kts 216°
2026-04-24 23:48 -7.85242 -42.12570 37976 ft 466 kts 216°
2026-04-24 23:48 -7.90437 -42.16483 37976 ft 466 kts 216°
2026-04-24 23:49 -7.95628 -42.20388 37969 ft 465 kts 216°
2026-04-24 23:49 -8.00820 -42.24285 37968 ft 465 kts 216°
2026-04-24 23:50 -8.06006 -42.28181 37970 ft 465 kts 216°
2026-04-24 23:50 -8.11191 -42.32076 37968 ft 465 kts 216°
2026-04-24 23:51 -8.16367 -42.35977 37971 ft 464 kts 216°
2026-04-24 23:51 -8.21542 -42.39885 37973 ft 464 kts 216°
2026-04-24 23:52 -8.26717 -42.43781 37974 ft 464 kts 216°
2026-04-24 23:52 -8.31900 -42.47675 37978 ft 464 kts 216°
2026-04-24 23:53 -8.37075 -42.51573 37985 ft 464 kts 216°
2026-04-24 23:53 -8.42281 -42.55502 37988 ft 464 kts 216°
2026-04-24 23:54 -8.47444 -42.59398 37984 ft 463 kts 216°
2026-04-24 23:54 -8.52602 -42.63288 37990 ft 463 kts 216°
2026-04-24 23:55 -8.57762 -42.67186 37986 ft 462 kts 216°
2026-04-24 23:55 -8.62920 -42.71078 37991 ft 462 kts 216°
2026-04-24 23:56 -8.68072 -42.74964 37987 ft 462 kts 216°
2026-04-24 23:56 -8.73227 -42.78854 37991 ft 462 kts 216°
2026-04-24 23:57 -8.78378 -42.82748 37988 ft 462 kts 216°
2026-04-24 23:57 -8.83528 -42.86647 37993 ft 462 kts 216°
2026-04-24 23:58 -8.88675 -42.90538 37996 ft 462 kts 216°
2026-04-24 23:58 -8.93861 -42.94455 38003 ft 462 kts 216°
2026-04-24 23:59 -8.99009 -42.98351 38001 ft 462 kts 216°
2026-04-24 23:59 -9.04153 -43.02244 38001 ft 462 kts 216°
2026-04-25 00:00 -9.09294 -43.06137 38005 ft 462 kts 216°
2026-04-25 00:00 -9.14430 -43.10031 38008 ft 461 kts 216°
2026-04-25 00:01 -9.19570 -43.13927 38002 ft 461 kts 216°
2026-04-25 00:01 -9.24699 -43.17817 38007 ft 461 kts 216°
2026-04-25 00:02 -9.29836 -43.21712 38005 ft 461 kts 216°
2026-04-25 00:02 -9.34133 -43.24975 38002 ft 461 kts 216°
2026-04-25 00:03 -9.39261 -43.28864 37999 ft 461 kts 216°
2026-04-25 00:03 -9.44387 -43.32752 38001 ft 461 kts 216°
2026-04-25 00:04 -9.49515 -43.36652 38005 ft 461 kts 216°
2026-04-25 00:04 -9.54643 -43.40545 38007 ft 460 kts 216°
2026-04-25 00:05 -9.59772 -43.44432 38002 ft 460 kts 216°
2026-04-25 00:05 -9.64898 -43.48329 37998 ft 460 kts 216°
2026-04-25 00:06 -9.70016 -43.52225 38000 ft 460 kts 216°
2026-04-25 00:06 -9.75137 -43.56128 38002 ft 460 kts 216°
2026-04-25 00:07 -9.80257 -43.60026 38002 ft 460 kts 216°
2026-04-25 00:07 -9.85381 -43.63926 38002 ft 460 kts 216°
2026-04-25 00:08 -9.90502 -43.67821 38002 ft 460 kts 216°
2026-04-25 00:08 -9.95653 -43.71748 38005 ft 460 kts 216°
2026-04-25 00:09 -10.00771 -43.75657 38006 ft 460 kts 216°
2026-04-25 00:09 -10.05886 -43.79559 38005 ft 460 kts 216°
2026-04-25 00:10 -10.11004 -43.83469 38007 ft 460 kts 216°
2026-04-25 00:10 -10.16119 -43.87381 38006 ft 460 kts 216°
2026-04-25 00:11 -10.21237 -43.91284 38006 ft 460 kts 216°
2026-04-25 00:11 -10.26358 -43.95193 38013 ft 460 kts 216°
2026-04-25 00:12 -10.31470 -43.99106 38010 ft 460 kts 216°
2026-04-25 00:12 -10.36584 -44.03019 38008 ft 460 kts 216°
2026-04-25 00:13 -10.41705 -44.06932 38016 ft 460 kts 216°
2026-04-25 00:13 -10.46852 -44.10877 38017 ft 460 kts 216°
2026-04-25 00:14 -10.51962 -44.14794 38018 ft 460 kts 216°
2026-04-25 00:14 -10.57075 -44.18707 38016 ft 460 kts 216°
2026-04-25 00:15 -10.62189 -44.22619 38017 ft 460 kts 216°
2026-04-25 00:15 -10.67307 -44.26532 38014 ft 460 kts 216°
2026-04-25 00:16 -10.72419 -44.30447 38015 ft 460 kts 216°
2026-04-25 00:16 -10.77538 -44.34363 38016 ft 460 kts 216°
2026-04-25 00:17 -10.82648 -44.38277 38018 ft 460 kts 216°
2026-04-25 00:17 -10.87767 -44.42200 38016 ft 460 kts 216°
2026-04-25 00:18 -10.92883 -44.46114 38019 ft 460 kts 216°
2026-04-25 00:18 -10.98001 -44.50028 38016 ft 460 kts 216°
2026-04-25 00:19 -11.03437 -44.53425 38012 ft 459 kts 204°
2026-04-25 00:19 -11.09253 -44.56122 38011 ft 459 kts 204°
2026-04-25 00:20 -11.15061 -44.58826 38008 ft 459 kts 204°
2026-04-25 00:20 -11.20914 -44.61551 38008 ft 459 kts 204°
2026-04-25 00:21 -11.26725 -44.64262 38010 ft 460 kts 204°
2026-04-25 00:21 -11.32541 -44.66977 38011 ft 460 kts 204°
2026-04-25 00:22 -11.38359 -44.69689 38016 ft 460 kts 204°
2026-04-25 00:22 -11.44174 -44.72398 38014 ft 460 kts 204°
2026-04-25 00:23 -11.49995 -44.75119 38013 ft 460 kts 204°
2026-04-25 00:23 -11.55808 -44.77839 38014 ft 460 kts 204°
2026-04-25 00:24 -11.61642 -44.80558 38015 ft 460 kts 204°
2026-04-25 00:24 -11.67465 -44.83277 38015 ft 461 kts 204°
2026-04-25 00:25 -11.73293 -44.86008 38019 ft 461 kts 204°
2026-04-25 00:25 -11.79129 -44.88738 38019 ft 461 kts 204°
2026-04-25 00:26 -11.84962 -44.91470 38023 ft 462 kts 204°
2026-04-25 00:26 -11.90804 -44.94208 38020 ft 462 kts 204°
2026-04-25 00:27 -11.96643 -44.96942 38023 ft 462 kts 204°
2026-04-25 00:27 -12.02530 -44.99699 38021 ft 462 kts 204°
2026-04-25 00:28 -12.08373 -45.02443 38021 ft 463 kts 204°
2026-04-25 00:28 -12.14222 -45.05195 38025 ft 463 kts 204°
2026-04-25 00:29 -12.20073 -45.07936 38027 ft 463 kts 204°
2026-04-25 00:29 -12.25931 -45.10684 38025 ft 463 kts 204°
2026-04-25 00:30 -12.31794 -45.13441 38025 ft 464 kts 204°
2026-04-25 00:30 -12.37661 -45.16199 38028 ft 464 kts 203°
2026-04-25 00:31 -12.43540 -45.18965 38028 ft 465 kts 203°
2026-04-25 00:31 -12.49414 -45.21733 38025 ft 465 kts 203°
2026-04-25 00:32 -12.55340 -45.24518 38030 ft 465 kts 203°
2026-04-25 00:32 -12.60229 -45.26817 38035 ft 466 kts 203°
2026-04-25 00:33 -12.66117 -45.29589 38035 ft 466 kts 203°
2026-04-25 00:33 -12.72056 -45.32393 38035 ft 466 kts 203°
2026-04-25 00:34 -12.77948 -45.35168 38038 ft 467 kts 203°
2026-04-25 00:34 -12.83858 -45.37958 38037 ft 467 kts 203°
2026-04-25 00:35 -12.89758 -45.40746 38044 ft 467 kts 203°
2026-04-25 00:35 -12.95661 -45.43535 38038 ft 468 kts 203°
2026-04-25 00:36 -13.01578 -45.46334 38043 ft 468 kts 203°
2026-04-25 00:36 -13.07496 -45.49134 38042 ft 469 kts 203°
2026-04-25 00:37 -13.13460 -45.51960 38046 ft 469 kts 203°
2026-04-25 00:37 -13.19386 -45.54752 38044 ft 469 kts 203°
2026-04-25 00:38 -13.25322 -45.57559 38044 ft 470 kts 203°
2026-04-25 00:38 -13.31256 -45.60377 38042 ft 470 kts 203°
2026-04-25 00:39 -13.37080 -45.63452 38042 ft 471 kts 208°
2026-04-25 00:39 -13.42772 -45.66892 38042 ft 472 kts 210°
2026-04-25 00:40 -13.48424 -45.70346 38046 ft 472 kts 209°
2026-04-25 00:40 -13.54121 -45.73703 38051 ft 472 kts 208°
2026-04-25 00:41 -13.59850 -45.77020 38044 ft 473 kts 208°
2026-04-25 00:41 -13.65575 -45.80353 38048 ft 473 kts 208°
2026-04-25 00:42 -13.71289 -45.83707 38050 ft 473 kts 208°
2026-04-25 00:42 -13.77009 -45.87063 38053 ft 473 kts 208°
2026-04-25 00:43 -13.82758 -45.90439 38054 ft 473 kts 208°
2026-04-25 00:43 -13.88484 -45.93800 38057 ft 474 kts 208°
2026-04-25 00:44 -13.94213 -45.97163 38049 ft 474 kts 208°
2026-04-25 00:44 -13.99938 -46.00526 38052 ft 474 kts 208°
2026-04-25 00:45 -14.05658 -46.03891 38051 ft 474 kts 208°
2026-04-25 00:45 -14.11384 -46.07266 38048 ft 474 kts 208°
2026-04-25 00:46 -14.17112 -46.10638 38049 ft 474 kts 208°
2026-04-25 00:47 -14.25701 -46.15710 38049 ft 474 kts 208°
2026-04-25 00:47 -14.31419 -46.19097 38047 ft 474 kts 208°
2026-04-25 00:48 -14.37148 -46.22473 38046 ft 474 kts 208°
2026-04-25 00:48 -14.42878 -46.25858 38043 ft 474 kts 208°
2026-04-25 00:49 -14.48604 -46.29257 38040 ft 475 kts 208°
2026-04-25 00:49 -14.54359 -46.32673 38042 ft 475 kts 208°
2026-04-25 00:50 -14.59974 -46.36255 38036 ft 476 kts 217°
2026-04-25 00:50 -14.64610 -46.41198 38043 ft 477 kts 229°
2026-04-25 00:51 -14.68899 -46.46430 38038 ft 477 kts 229°
2026-04-25 00:51 -14.73194 -46.51658 38034 ft 477 kts 229°
2026-04-25 00:52 -14.77498 -46.56889 38034 ft 478 kts 229°
2026-04-25 00:52 -14.81795 -46.62127 38036 ft 478 kts 229°
2026-04-25 00:53 -14.86086 -46.67370 38037 ft 478 kts 229°
2026-04-25 00:53 -14.90379 -46.72614 38041 ft 478 kts 229°
2026-04-25 00:54 -14.94703 -46.77898 38041 ft 478 kts 229°
2026-04-25 00:54 -14.98990 -46.83147 38043 ft 478 kts 229°
2026-04-25 00:55 -15.03100 -46.88537 38032 ft 478 kts 239°
2026-04-25 00:55 -15.06478 -46.94462 38040 ft 478 kts 239°
2026-04-25 00:56 -15.09852 -47.00390 38033 ft 478 kts 239°
2026-04-25 00:56 -15.13221 -47.06327 38046 ft 478 kts 239°
2026-04-25 00:57 -15.16584 -47.12264 38045 ft 478 kts 239°
2026-04-25 00:57 -15.19951 -47.18200 38047 ft 478 kts 239°
2026-04-25 00:58 -15.23318 -47.24140 38049 ft 478 kts 239°
2026-04-25 00:58 -15.26684 -47.30081 38062 ft 478 kts 239°
2026-04-25 00:59 -15.30047 -47.36025 37862 ft 478 kts 239°
2026-04-25 00:59 -15.31725 -47.38997 37572 ft 477 kts 239°
2026-04-25 00:59 -15.33407 -47.41981 36745 ft 482 kts 239°
2026-04-25 00:59 -15.35101 -47.44984 35888 ft 485 kts 239°
2026-04-25 01:00 -15.36816 -47.48021 34908 ft 491 kts 239°
2026-04-25 01:00 -15.38539 -47.51073 34194 ft 490 kts 239°
2026-04-25 01:00 -15.40260 -47.54120 33228 ft 491 kts 239°
2026-04-25 01:00 -15.41989 -47.57188 32164 ft 494 kts 239°
2026-04-25 01:01 -15.43159 -47.59267 31436 ft 496 kts 239°
2026-04-25 01:01 -15.44895 -47.62354 30326 ft 498 kts 239°
2026-04-25 01:01 -15.46651 -47.65471 28997 ft 501 kts 239°
2026-04-25 01:01 -15.48415 -47.68600 27594 ft 504 kts 239°
2026-04-25 01:02 -15.50191 -47.71752 26136 ft 508 kts 239°
2026-04-25 01:02 -15.51967 -47.74909 24425 ft 506 kts 239°
2026-04-25 01:02 -15.53750 -47.78078 22730 ft 507 kts 239°
2026-04-25 01:02 -15.55519 -47.81226 21423 ft 491 kts 239°
2026-04-25 01:03 -15.57108 -47.84050 19993 ft 476 kts 239°
2026-04-25 01:03 -15.58762 -47.86990 18520 ft 463 kts 239°
2026-04-25 01:03 -15.60362 -47.89842 16901 ft 451 kts 240°
2026-04-25 01:03 -15.61915 -47.92618 15371 ft 438 kts 240°
2026-04-25 01:04 -15.63416 -47.95296 14294 ft 419 kts 240°
2026-04-25 01:04 -15.64848 -47.97850 13273 ft 401 kts 240°
2026-04-25 01:04 -15.66225 -48.00304 12370 ft 390 kts 240°
2026-04-25 01:04 -15.67579 -48.02714 11510 ft 384 kts 240°
2026-04-25 01:05 -15.68895 -48.05061 11212 ft 364 kts 240°
2026-04-25 01:05 -15.70126 -48.07259 11081 ft 342 kts 241°
2026-04-25 01:05 -15.71290 -48.09338 10973 ft 324 kts 240°
2026-04-25 01:05 -15.72393 -48.11309 10830 ft 310 kts 241°
2026-04-25 01:06 -15.73459 -48.13218 10603 ft 302 kts 241°
2026-04-25 01:06 -15.74520 -48.15118 10358 ft 299 kts 240°
2026-04-25 01:06 -15.75561 -48.16978 10123 ft 297 kts 240°
2026-04-25 01:06 -15.76779 -48.18705 9894 ft 297 kts 225°
2026-04-25 01:07 -15.78441 -48.19962 9761 ft 297 kts 207°
2026-04-25 01:07 -15.80396 -48.20628 9627 ft 297 kts 188°
2026-04-25 01:07 -15.82461 -48.20643 9461 ft 297 kts 172°
2026-04-25 01:07 -15.84429 -48.20034 8707 ft 305 kts 152°
2026-04-25 01:08 -15.86166 -48.18695 7904 ft 312 kts 132°
2026-04-25 01:08 -15.87330 -48.16808 7411 ft 308 kts 110°
2026-04-25 01:08 -15.87732 -48.14690 7247 ft 291 kts 90°
2026-04-25 01:08 -15.87629 -48.12675 7047 ft 271 kts 85°
2026-04-25 01:09 -15.87507 -48.10769 6751 ft 258 kts 86°
2026-04-25 01:09 -15.87391 -48.08949 6445 ft 247 kts 86°
2026-04-25 01:09 -15.87283 -48.07240 6144 ft 225 kts 86°
2026-04-25 01:09 -15.87185 -48.05697 5875 ft 203 kts 85°
2026-04-25 01:10 -15.87095 -48.04289 5646 ft 183 kts 86°
2026-04-25 01:10 -15.87015 -48.03031 5419 ft 168 kts 86°
2026-04-25 01:10 -15.86942 -48.01878 5216 ft 152 kts 86°
2026-04-25 01:10 -15.86874 -48.00828 5039 ft 140 kts 86°
2026-04-25 01:11 -15.86812 -47.99851 4864 ft 133 kts 86°
2026-04-25 01:11 -15.86752 -47.98909 4684 ft 130 kts 86°
2026-04-25 01:11 -15.86692 -47.97979 4528 ft 129 kts 86°
2026-04-25 01:11 -15.86632 -47.97043 4361 ft 130 kts 86°
2026-04-25 01:12 -15.86572 -47.96104 4184 ft 131 kts 86°
2026-04-25 01:12 -15.86511 -47.95155 3994 ft 132 kts 86°
2026-04-25 01:12 -15.86448 -47.94174 3819 ft 136 kts 86°
2026-04-25 01:12 -15.86387 -47.93190 3587 ft 136 kts 87°
2026-04-25 01:13 -15.86323 -47.92213 3469 ft 127 kts 86°
2026-04-25 01:13 -15.86274 -47.91391 3469 ft 94 kts 86°
2026-04-25 01:13 -15.86245 -47.90939 3478 ft 32 kts 88°
2026-04-25 01:13 -15.86317 -47.90778 3481 ft 16 kts 132°
2026-04-25 01:14 -15.86367 -47.90720 3481 ft 10 kts 131°
2026-04-25 01:14 -15.86430 -47.90702 3477 ft 10 kts 174°
2026-04-25 01:14 -15.86513 -47.90687 3477 ft 12 kts 137°
2026-04-25 01:14 -15.86525 -47.90599 3480 ft 9 kts 85°
2026-04-25 01:15 -15.86520 -47.90524 3481 ft 12 kts 86°
2026-04-25 01:15 -15.86556 -47.90455 3481 ft 13 kts 166°
2026-04-25 01:15 -15.86633 -47.90458 3477 ft 4 kts 240°
2026-04-25 01:15 -15.86634 -47.90492 3478 ft 4 kts 269°
2026-04-25 01:16 -15.86634 -47.90498 3478 ft 0 kts 268°